411  
ASUS41 KBOX 230904  
RWRBOX  
 
REGIONAL WEATHER ROUNDUP  
NATIONAL WEATHER SERVICE BOSTON/NORTON MA  
500 AM EDT FRI APR 23 2021  
 
NOTE: "FAIR" INDICATES FEW OR NO CLOUDS BELOW 12,000 FEET WITH NO  
SIGNIFICANT WEATHER AND/OR S TO VISIBILITY
.  
 
MAZALL-231000-  
EASTERN MASSACHUSETTS  
 
CITY SKY/WX TMP DP RH WIND PRES REMARKS
 
BOSTON PTCLDY 39 21 48 W14G23 29.80S WCI 31  
BEVERLY CLEAR 36 21 54 W13 29.77S WCI 27  
LAWRENCE CLEAR 37 22 54 W16 29.78S WCI 28  
BEDFORD CLEAR 36 21 54 SW10 29.79S WCI 28  
BLUE HILL N/A 33 20 58 W16G26 29.78S WCI 23  
NORWOOD CLEAR 37 20 50 SW10 29.83R WCI 30  
MARSHFIELD CLEAR 37 21 52 W12G22 29.81S WCI 30  
PLYMOUTH CLEAR 36 21 54 SW13 29.83S WCI 27  
TAUNTON CLEAR 37 20 50 W9 29.85S WCI 30  
NEW BEDFORD CLEAR 37 21 52 W14 29.85S WCI 28  

 
 
MAZALL-231000-  
CAPE COD AND THE ISLANDS  
 
CITY SKY/WX TMP DP RH WIND PRES REMARKS
 
FALMOUTH NOT AVBL  
HYANNIS CLEAR 39 22 50 W14G22 29.82R WCI 31  
CHATHAM CLEAR 37 20 50 VRB7G18 29.84R WCI 32  
PROVINCETOWN CLEAR 39 25 57 W23G35 29.81S WCI 28  
NANTUCKET CLEAR 40 23 50 W16G25 29.85R WCI 31  
MARTHAS VNYRD CLEAR 39 23 52 W12G28 29.86S WCI 32  

 
 
MAZALL-231000-  
CENTRAL AND WESTERN MASSACHUSETTS  
 
CITY SKY/WX TMP DP RH WIND PRES REMARKS
 
WORCESTER CLEAR 33 19 56 W15G24 29.79S WCI 23  
FITCHBURG CLEAR 35 22 58 VRB7 29.80S WCI 29  
ORANGE CLEAR 35 22 58 W10 29.83R WCI 27  
SPRINGFIELD CLEAR 35 20 54 W9 29.87R WCI 28  
WESTFIELD CLEAR 35 22 58 W12 29.88R WCI 27  
NORTH ADAMS NOT AVBL  
PITTSFIELD CLOUDY 32 21 64 W16 29.85R WCI 21  

 
 
RIZALL-231000-  
RHODE ISLAND  
 
CITY SKY/WX TMP DP RH WIND PRES REMARKS
 
PROVIDENCE CLEAR 36 23 59 W14 29.88R WCI 27  
NEWPORT CLEAR 36 24 62 W9G20 29.87R WCI 29  
BLOCK ISLAND CLEAR 39 23 52 W16G25 29.92R WCI 30  
SMITHFIELD CLEAR 34 21 59 W14G22 29.85R WCI 25  
WESTERLY CLEAR 35 24 64 VRB6 29.91R WCI 30  

 
 
CTZALL-231000-  
CONNECTICUT  
 
CITY SKY/WX TMP DP RH WIND PRES REMARKS
 
BRADLEY INTL PTCLDY 36 20 52 W8 29.89R WCI 30  
HARTFORD CLEAR 37 22 54 W8 29.91R WCI 31  
BRIDGEPORT CLEAR 38 22 52 W13 29.96R WCI 30  
DANBURY CLEAR 36 20 52 W9 29.96R WCI 29  
GROTON CLEAR 38 25 59 W13 29.91R WCI 30  
NEW HAVEN CLEAR 40 25 55 W9 29.94R  
CHESTER FAIR 36 23 60 VRB7G14 29.91R WCI 30  
MERIDEN CLEAR 36 22 56 VRB3 29.93R  
WILLIMANTIC CLEAR 34 23 64 SW3 29.90R  
OXFORD PTCLDY 33 22 63 W6 29.93R WCI 28  

 
 
MEZ002-015-021-024-NHZ003-005-008-011-012-014-VTZ005-008-231000-  
NORTHERN NEW ENGLAND  
 
CITY SKY/WX TMP DP RH WIND PRES REMARKS
 
PORTLAND ME MOCLDY 38 22 52 SW9 29.65S WCI 31  
BANGOR ME MOCLDY 36 18 48 SW14G20 29.49S WCI 27  
CONCORD NH CLEAR 34 20 56 W9 29.73R WCI 27  
MANCHESTER NH PTCLDY 36 20 52 SW6 29.75R WCI 31  
NASHUA NH CLEAR 35 22 58 VRB7 29.79R WCI 29  
PORTSMOUTH NH PTCLDY 36 18 47 W15 29.72S WCI 26  
JAFFREY NH CLEAR 33 22 63 W9 29.77R WCI 25  
KEENE NH CLEAR 34 22 61 SW7G16 29.80R WCI 28  
BURLINGTON VT CLOUDY 38 22 52 W12G18 29.75R WCI 30  
MT. WASHINGTON BLWGSNOW 10 10 100 W99G114 N/A VSB 0 WCI -21  

 
 
NYZ052-076-231000-  
EASTERN NEW YORK  
 
CITY SKY/WX TMP DP RH WIND PRES REMARKS
 
ALBANY PTCLDY 33 23 66 W14 29.90R WCI 23  
NEW YORK CITY PTCLDY 41 21 44 W16G30 30.00R  

 
 
ANZALL-231000-  
MARINE OBSERVATIONS  
 
STATION/POSITION TIME TEMP WIND PRES VSBY WAVE
 
AIR SEA DIR/SP/G HT/PER  
(UTC) (F) (DEG/KT/KT) (MB) (MI) (FT/S)  
BOSTON BUOY 0840 40 44 250/ 23/ 29 1009.1S  
BUZZARDS BAY 0800 270/ 29/ 33 1012.3R  
NANTUCKET SOUND 0840 49 N/A  
MASS BAY-STELLWA 0804 40 260/ 23/ 29 1006.7R 1 7/8 4/ 5  
ISLE OF SHOALS 0800 38 240/ 26/ 29 1005.8R  
S OF BLOCK IS 0826 45 N/A 8/ 6  

 
   
.....................KEY......................
 
 
SKY/WX - SKY CONDITION/PRESENT WEATHER  
TMP - TEMPERATURE IN FAHRENHEIT  
DWPT - DEWPOINT IN FAHRENHEIT  
RH - RELATIVE HUMIDITY IN PERCENT  
WIND - DIRECTION AND SPEED IN MPH  
PRES - MEAN SEA LEVEL PRESSURE IN INCHES OF HG  
WCI - WIND CHILL INDEX  
VSB - VISIBILITY IN MILES  
HX - HEAT INDEX  
TC - TEMPERATURE IN CELSIUS  
VRB - VARIABLE WIND DIRECTION  
N/A - NOT AVAILABLE  
 
 
CLICK HERE TO GO TO PREVIOUS BULLETINS.

The Nexlab MA Page
The Nexlab RI Page
The Nexlab NH Page
The Nexlab CT Page Main Text Page